Regional Weather Roundup
Issued by NWS

Home | Current Version | Previous Version | Text Only | Print | Product List | Glossary Off
Versions: 1 2 3 4 5 6 7 8 9 10 11 12 13 14 15 16 17 18 19 20 21 22 23 24 25 26 27 28 29 30 31 32 33 34 35 36 37 38 39 40 41 42 43 44 45 46 47 48 49 50

000
ASUS43 KBIS 190510
RWRND

NORTH DAKOTA REGIONAL WEATHER ROUNDUP
NATIONAL WEATHER SERVICE BISMARCK ND
1200 AM CDT SAT APR 19 2014

NOTE: "FAIR" INDICATES FEW OR NO CLOUDS BELOW 12,000 FEET WITH NO
SIGNIFICANT WEATHER AND/OR OBSTRUCTIONS TO VISIBILITY.


NDZ001>003-009>011-017-190600-
NORTHWEST NORTH DAKOTA

CITY           SKY/WX    TMP DP  RH WIND       PRES   REMARKS
WILLISTON      LGT RAIN  43  41  93 W25G36    29.74R
MINOT          CLOUDY    40  36  86 E9        29.68F
MINOT AFB      CLOUDY    39  39 100 E13       29.68S
$$

NDZ018>021-031>035-040>046-190600-
SOUTHWEST NORTH DAKOTA

CITY           SKY/WX    TMP DP  RH WIND       PRES   REMARKS
BISMARCK       CLOUDY    48  39  71 NW12      29.62R
DICKINSON      PTCLDY    43  39  86 W24G32    29.73R
GARRISON         N/A     42  38  85 E7        29.65F
HETTINGER ARPT PTCLDY    40  36  86 NW7       29.75R
$$

NDZ004>008-012>016-024-026-027-054-190600-
NORTHEAST NORTH DAKOTA

CITY           SKY/WX    TMP DP  RH WIND       PRES   REMARKS
GRAND FORKS    CLOUDY    43  29  57 SE28G39   29.84F
GRND FRKS AFB  CLOUDY    43  30  58 S25G35    29.84F
DEVILS LAKE    CLOUDY    39  28  65 SE23G35   29.72F
$$

NDZ022-023-025-028>030-036>039-047>053-190600-
SOUTHEAST NORTH DAKOTA

CITY           SKY/WX    TMP DP  RH WIND       PRES   REMARKS
FARGO          CLOUDY    47  30  51 SE33G44   29.84F
JAMESTOWN      MOCLDY    46  36  68 SE30G44   29.65F
$$




USA.gov is the U.S. government's official web portal to all federal, state and local government web resources and services.